Location: Unspecified
(51.0950°N, 12.9690°E)
Time: 22:51:29
(UTC+00:00)

Cosmos 1300 - Pass Details

Date: 28 October 2021
Orbit: 509 x 512 km, 82.5° (Epoch: 01 December)

Event Time Altitude Azimuth Distance (km) Brightness Sun altitude
Rises 16:48:07 0° 187° (S) 2,614 6.5 -9.8°
Reaches altitude 10° 16:50:14 10° 187° (S) 1,732 5.6 -10.1°
Maximum altitude 16:54:02 85° 99° (E) 522 2.6 -10.7°
Drops below altitude 10° 16:57:52 10° 11° (NNE) 1,746 5.2 -11.3°
Sets 17:00:00 0° 11° (NNE) 2,637 6.1 -11.6°
